User: anonymous   Login
Location: Unspecified
(0.0000°N, 0.0000°E)
Time: 14:52:51
(UTC+00:00)
Language:

Geos 2 - Orbit

View from above orbital plane
View from above orbital plane
View from above satellite
View from above satellite

Ground track
Ground track

The orbit data is extracted from the following two-line orbital elements,

1 10981U 78071A   18202.82773201 -.00000292  00000-0  00000+0 0  9998
2 10981  12.1255 318.4529 0005448 310.6133  89.7106  0.99378492145289
Epoch (UTC): 21 July 2018 19:51:56
Eccentricity: 0.0005448
inclination: 12.1255°
perigee height: 36015 km
apogee height: 36061 km
right ascension of ascending node: 318.4529°
argument of perigee: 310.6133°
revolutions per day: 0.99378492
mean anomaly at epoch: 89.7106°
orbit number at epoch: 14528

The dashed part of the orbit path shows where the satellite is in the earth's shadow,  

DLR